Aberdeen, United Kingdom

4:43 AM BST on October 23, 2019 (GMT +0100)
Dyce

Weather History for EGPD - August, 2019

Change the Weather History Date:

Saturday, August 24, 2019

  Actual Average Record
Temperature  
Mean Temperature 64 °F -  
Max Temperature 70 °F 61 °F 77 °F (2007)
Min Temperature 55 °F 47 °F 37 °F (1999)
Degree Days  
Heating Degree Days 2    
Growing Degree Days 14 (Base 50)    
Moisture  
Dew Point 56 °F    
Average Humidity 78    
Maximum Humidity 94    
Minimum Humidity 59    
Precipitation  
Precipitation 0.00 in 0.09 in - ()
Sea Level Pressure  
Sea Level Pressure 30.05 in    
Wind  
Wind Speed 9 mph ()    
Max Wind Speed 20 mph    
Max Gust Speed -    
Visibility 7.0 miles    
Events      
Averages and records for this station are not official NWS values.
T = Trace of Precipitation, MM = Missing Value Source: Averaged Metar Reports

Daily Weather History Graph

Daily Weather History Graph

Search for Another Location

Airport or City:

Astronomy

Aug. 24, 2019 Rise Set
Actual Time 5:53 AM BST 8:28 PM BST
Civil Twilight 5:10 AM BST 9:10 PM BST
Nautical Twilight 4:13 AM BST 10:06 PM BST
Astronomical Twilight 2:59 AM BST 11:18 PM BST
Moon 11:43 PM BST (8/24) 4:00 PM BST (8/24)
Length of Visible Light 16h 00m
Length of Day
14h 34m
Last Quarter, 41% of the Moon is Illuminated
Aug 24
Last Quarter
Aug 30
New
Sep 6
First Quarter
Sep 14
Full
Sep 22
Last Quarter

Hourly Weather History & Observations

Time (BST) Temp. Dew Point Humidity Pressure Visibility Wind Dir Wind Speed Gust Speed Precip Events Conditions
12:00 AM 64 °F 56 °F 70% 30.06 in 22 mi SW 4.6 mph - -   Overcast
12:20 AM 62.6 °F 57.2 °F 82% 30.06 in 6.2 mi SSW 4.6 mph - N/A   Unknown
12:50 AM 62.6 °F 57.2 °F 82% 30.06 in 6.2 mi South 8.1 mph - N/A   Unknown
1:00 AM 58 °F 56 °F 90% 30.07 in 5 mi WNW 3.5 mph - -   Light Haze
1:20 AM 60.8 °F 57.2 °F 88% 30.04 in 6.2 mi South 15.0 mph - N/A   Unknown
1:50 AM 60.8 °F 55.4 °F 82% 30.04 in 6.2 mi South 18.4 mph - N/A   Unknown
2:00 AM 62 °F 56 °F 74% 30.04 in 28 mi South 19.6 mph - -   Overcast
2:20 AM 60.8 °F 55.4 °F 82% 30.06 in 6.2 mi South 17.3 mph - N/A   Unknown
2:50 AM 60.8 °F 55.4 °F 82% 30.04 in 6.2 mi South 13.8 mph - N/A   Unknown
3:20 AM 60.8 °F 55.4 °F 82% 30.04 in 6.2 mi South 10.4 mph - N/A   Unknown
3:50 AM 60.8 °F 55.4 °F 82% 30.06 in 6.2 mi South 11.5 mph - N/A   Unknown
4:00 AM 60 °F 56 °F 81% 30.05 in 22 mi South 11.5 mph - -   Overcast
4:20 AM 59.0 °F 55.4 °F 88% 30.04 in 6.2 mi South 15.0 mph - N/A   Unknown
4:50 AM 59.0 °F 55.4 °F 88% 30.04 in 6.2 mi South 9.2 mph - N/A   Unknown
5:00 AM 59 °F 56 °F 85% 30.04 in 28 mi South 6.9 mph - -   Overcast
5:20 AM 59.0 °F 55.4 °F 88% 30.04 in 6.2 mi South 11.5 mph - N/A   Unknown
5:50 AM 59.0 °F 55.4 °F 88% 30.04 in 6.2 mi South 11.5 mph - N/A   Unknown
6:00 AM 60 °F 55 °F 80% 30.04 in 31 mi SSW 11.5 mph - -   Overcast
6:20 AM 59.0 °F 55.4 °F 88% 30.04 in 6.2 mi South 9.2 mph - N/A   Unknown
6:50 AM 60.8 °F 55.4 °F 82% 30.04 in 6.2 mi South 11.5 mph - N/A   Partly Cloudy
7:00 AM 60 °F 56 °F 81% 30.04 in 22 mi South 11.5 mph - -  
7:20 AM 60.8 °F 55.4 °F 82% 30.04 in 6.2 mi SSE 12.7 mph - N/A   Unknown
7:50 AM 60.8 °F 55.4 °F 82% 30.04 in 6.2 mi South 12.7 mph - N/A   Unknown
8:00 AM 60 °F 56 °F 83% 30.04 in 19 mi South 11.5 mph - -   Overcast
8:20 AM 60.8 °F 57.2 °F 88% 30.04 in 6.2 mi South 13.8 mph - N/A   Unknown
8:50 AM 60.8 °F 57.2 °F 88% 30.04 in 6.2 mi South 9.2 mph - N/A   Unknown
9:00 AM 61 °F 56 °F 79% 30.04 in 22 mi South 9.2 mph - -   Overcast
9:20 AM 60.8 °F 57.2 °F 88% 30.04 in 6.2 mi South 12.7 mph - N/A   Unknown
9:50 AM 62.6 °F 57.2 °F 82% 30.04 in 6.2 mi SSW 10.4 mph - N/A   Unknown
10:00 AM 62 °F 56 °F 73% 30.04 in 28 mi SSW 10.4 mph - -   Mostly Cloudy
10:20 AM 62.6 °F 57.2 °F 82% 30.04 in 6.2 mi South 10.4 mph - N/A   Unknown
10:50 AM 62.6 °F 57.2 °F 82% 30.04 in 6.2 mi South 10.4 mph - N/A   Unknown
11:20 AM 62.6 °F 57.2 °F 82% 30.04 in 6.2 mi South 15.0 mph - N/A   Unknown
11:50 AM 64.4 °F 57.2 °F 77% 30.06 in 6.2 mi South 13.8 mph - N/A   Unknown
12:00 PM 65 °F 57 °F 68% 30.05 in 31 mi South 13.8 mph - -   Overcast
12:20 PM 64.4 °F 57.2 °F 77% 30.06 in 6.2 mi SSE 13.8 mph - N/A   Unknown
12:50 PM 64.4 °F 59.0 °F 83% 30.04 in 6.2 mi South 15.0 mph - N/A   Unknown
1:00 PM 64 °F 58 °F 73% 30.05 in 19 mi South 13.8 mph - -   Overcast
1:20 PM 66.2 °F 59.0 °F 78% 30.06 in 6.2 mi South 13.8 mph - N/A   Unknown
1:50 PM 68.0 °F 59.0 °F 73% 30.06 in 6.2 mi South 13.8 mph - N/A   Unknown
2:00 PM 68 °F 58 °F 62% 30.06 in 25 mi South 13.8 mph - -   Mostly Cloudy
2:20 PM 68.0 °F 57.2 °F 68% 30.06 in 6.2 mi South 12.7 mph - N/A   Unknown
2:50 PM 69.8 °F 59.0 °F 68% 30.06 in 6.2 mi South 11.5 mph - N/A   Unknown
3:00 PM 69 °F 58 °F 59% 30.06 in 19 mi South 11.5 mph - -   Partly Cloudy
3:20 PM 69.8 °F 59.0 °F 68% 30.06 in 6.2 mi SSE 8.1 mph - N/A   Unknown
3:50 PM 69.8 °F 59.0 °F 68% 30.06 in 6.2 mi SE 9.2 mph - N/A   Unknown
4:00 PM 69 °F 58 °F 59% 30.06 in 22 mi SSE 9.2 mph - -  
4:20 PM 69.8 °F 57.2 °F 64% 30.06 in 6.2 mi SE 9.2 mph - N/A   Unknown
4:50 PM 69.8 °F 57.2 °F 64% 30.06 in 6.2 mi SSE 9.2 mph - N/A   Unknown
5:00 PM 69 °F 58 °F 59% 30.06 in 22 mi SSE 9.2 mph - -   Scattered Clouds
5:20 PM 68.0 °F 57.2 °F 68% 30.06 in 6.2 mi SSE 11.5 mph - N/A   Unknown
5:50 PM 68.0 °F 57.2 °F 68% 30.06 in 6.2 mi SSE 10.4 mph - N/A   Unknown
6:00 PM 68 °F 58 °F 61% 30.06 in 22 mi South 10.4 mph - -   Mostly Cloudy
6:20 PM 68.0 °F 57.2 °F 68% 30.06 in 6.2 mi South 11.5 mph - N/A   Unknown
6:50 PM 66.2 °F 55.4 °F 68% 30.06 in 6.2 mi South 12.7 mph - N/A   Unknown
7:00 PM 66 °F 56 °F 61% 30.05 in 28 mi South 13.8 mph - -   Mostly Cloudy
7:20 PM 64.4 °F 55.4 °F 73% 30.06 in 6.2 mi ESE 4.6 mph - N/A   Unknown
7:50 PM 62.6 °F 55.4 °F 77% 30.06 in 6.2 mi South 5.8 mph - N/A   Unknown
8:00 PM 62 °F 54 °F 69% 30.07 in 28 mi South 5.8 mph - -   Mostly Cloudy
8:20 PM 60.8 °F 53.6 °F 77% 30.06 in 6.2 mi Variable 2.3 mph - N/A   Unknown
8:50 PM 60.8 °F 53.6 °F 77% 30.06 in 6.2 mi Variable 2.3 mph - N/A   Unknown
9:00 PM 61 °F 56 °F 77% 30.08 in 22 mi SE 2.3 mph - -   Scattered Clouds
9:20 PM 59.0 °F 55.4 °F 88% 30.06 in 6.2 mi Variable 2.3 mph - N/A   Unknown
9:50 PM 57.2 °F 55.4 °F 94% 30.09 in 6.2 mi ESE 4.6 mph - N/A   Unknown
10:20 PM 57.2 °F 55.4 °F 94% 30.09 in 5.6 mi SE 4.6 mph - N/A   Unknown
10:50 PM 57.2 °F 53.6 °F 88% 30.06 in 6.2 mi South 4.6 mph - N/A   Unknown
11:00 PM 58 °F 55 °F 88% 30.08 in 11 mi South 3.5 mph - -   Overcast
11:20 PM 57.2 °F 55.4 °F 94% 30.06 in 6.2 mi Variable 1.2 mph - N/A   Unknown
11:50 PM 55.4 °F 53.6 °F 94% 30.06 in 5.0 mi Variable 1.2 mph - N/A   Unknown